This demonstration page uses our WeatherBlox Daily Observations layout. Learn more.

Left ArrowRight Arrow

41.12389, -100.76542

Hourly Observations for July 7, 2016

Temp ( °F °C ) Dew Point ( °F °C ) Humidity (%) Winds ( mph kmh ) Pressure ( in mb ) Visibility ( mi km ) Precip ( " mm )
12:53 am 00:53 Clear 65 18.3 59 15 81 81 ESE 7 11 29.65 1004 10 16 0.00 0.00
1:53 am 01:53 Clear 64 17.8 60 15.6 87 87 NNE 5 7 29.65 1004 10 16 0.00 0.00
2:53 am 02:53 Clear 63 17.2 60 15.6 90 90 ENE 7 11 29.64 1004 10 16 0.00 0.00
3:53 am 03:53 Clear 64 17.8 60 15.6 87 87 ENE 8 13 29.64 1004 10 16 0.00 0.00
4:53 am 04:53 Clear 62 16.7 59 15 90 90 E 5 7 29.67 1005 10 16 0.00 0.00
5:53 am 05:53 Clear 61 16.1 59 15 93 93 Calm 29.69 1006 10 16 0.00 0.00
6:53 am 06:53 Sunny 62 16.7 59 15 90 90 Calm 29.69 1006 10 16 0.00 0.00
7:53 am 07:53 Sunny 66 18.9 61 16.1 84 84 WNW 5 7 29.73 1007 10 16 0.00 0.00
8:53 am 08:53 Sunny 70 21.1 62 16.7 76 76 VRB 3 6 29.75 1008 10 16 0.00 0.00
9:53 am 09:53 Partly Cloudy 76 24.4 65 18.3 69 69 W 9 15 29.80 1009 N/A 0.00 0.00
10:53 am 10:53 Partly Cloudy 78 25.6 66 18.9 67 67 WSW 12 19 29.82 1010 8 13 0.00 0.00
11:53 am 11:53 Sunny 82 27.8 66 18.9 58 58 WSW 13 20 29.83 1010 10 16 0.00 0.00
12:53 pm 12:53 Sunny 84 28.9 67 19.4 57 57 WNW 10 17 29.84 1010 10 16 0.00 0.00
1:53 pm 13:53 Sunny 86 30 60 15.6 42 42 NW 7 11 29.83 1010 10 16 0.00 0.00
2:53 pm 14:53 Mostly Cloudy 85 29.4 54 12.2 35 35 NNW 10 17 29.84 1011 10 16 0.00 0.00
3:53 pm 15:53 Mostly Sunny 85 29.4 57 13.9 39 39 N 7 11 29.84 1011 10 16 0.00 0.00
4:53 pm 16:53 Sunny 84 28.9 60 15.6 44 44 NNE 10 17 29.85 1011 10 16 0.00 0.00
5:53 pm 17:53 Sunny 81 27.2 60 15.6 49 49 N 8 13 29.86 1011 10 16 0.00 0.00
6:53 pm 18:53 Sunny 74 23.3 62 16.7 67 67 NNE 16 26 29.89 1012 10 16 0.00 0.00
7:53 pm 19:53 Sunny 74 23.3 61 16.1 64 64 NNE 9 15 29.91 1013 10 16 0.00 0.00
8:53 pm 20:53 Sunny 72 22.2 59 15 64 64 NE 9 15 29.90 1013 10 16 0.00 0.00
9:53 pm 21:53 Clear 68 20 59 15 73 73 NE 9 15 29.90 1013 10 16 0.00 0.00
10:53 pm 22:53 Clear 67 19.4 59 15 76 76 ESE 7 11 29.94 1014 10 16 0.00 0.00
11:53 pm 23:53 Clear 62 16.7 58 14.4 86 86 ESE 5 7 29.94 1014 10 16 0.00 0.00

Powered by AerisWeather